When you browse on this site, cookies collect data to enhance your experience and personalize the content and advertising you see.
Visit our Privacy Policy to learn more. By continuing to use the site, you agree to this use of cookies and data.
  • In United Kingdom
  • List of Countries
  • For 7 days
  • Water Temperature
  • Satellite Maps
  • Weather Map
  • Weather Widgets
  • user-avatar
    Login

    Hourly Weather Baranovichi

    Today, 16 February, Saturday

    Time Temperature Precipitation Wind Pressure Humidity
    00:00 0°C° 0 mm 3 mps 754 mmHg 96%
    01:00 0°C° 0 mm 3 mps 754 mmHg 96%
    02:00 0°C° 0 mm 3 mps 754 mmHg 97%
    03:00 0°C° 0 mm 3 mps 754 mmHg 96%
    04:00 -1°C° 0 mm 4 mps 753 mmHg 96%
    05:00 -1°C° 0 mm 4 mps 753 mmHg 96%
    06:00 -1°C° 0 mm 4 mps 753 mmHg 96%
    07:00 -1°C° 0 mm 4 mps 753 mmHg 96%
    08:00 -1°C° 0 mm 4 mps 753 mmHg 96%
    09:00 0°C° 0 mm 4 mps 753 mmHg 95%
    10:00 0°C° 0 mm 4 mps 753 mmHg 93%
    11:00 +1°C° 0 mm 4 mps 753 mmHg 92%
    12:00 +3°C° 0 mm 4 mps 753 mmHg 89%
    13:00 +3°C° 0 mm 4 mps 752 mmHg 85%
    14:00 +4°C° 0 mm 4 mps 752 mmHg 82%
    15:00 +4°C° 0 mm 4 mps 752 mmHg 83%
    16:00 +3°C° 0 mm 4 mps 751 mmHg 84%
    17:00 +3°C° 0 mm 3 mps 751 mmHg 86%
    18:00 +2°C° 0 mm 3 mps 751 mmHg 86%
    19:00 +1°C° 0 mm 4 mps 750 mmHg 85%
    20:00 0°C° 0 mm 4 mps 750 mmHg 85%
    21:00 0°C° 0 mm 4 mps 750 mmHg 84%
    22:00 0°C° 0 mm 4 mps 749 mmHg 83%
    23:00 0°C° 0 mm 4 mps 749 mmHg 82%

    Tomorrow, 17 February, Sunday

    Time Temperature Precipitation Wind Pressure Humidity
    00:00 0°C° 0 mm 4 mps 749 mmHg 81%
    01:00 0°C° 0 mm 4 mps 749 mmHg 80%
    02:00 0°C° 0 mm 4 mps 748 mmHg 80%
    03:00 0°C° 0 mm 4 mps 748 mmHg 81%
    04:00 -1°C° 0 mm 5 mps 748 mmHg 82%
    05:00 -1°C° 0 mm 5 mps 747 mmHg 82%
    06:00 -1°C° 0 mm 5 mps 747 mmHg 84%
    07:00 -1°C° 0 mm 5 mps 747 mmHg 85%
    08:00 -1°C° 0 mm 5 mps 747 mmHg 86%
    09:00 0°C° 0 mm 5 mps 747 mmHg 86%
    10:00 +1°C° 0 mm 5 mps 747 mmHg 85%
    11:00 +2°C° 0 mm 6 mps 748 mmHg 85%
    12:00 +2°C° 0 mm 5 mps 748 mmHg 86%
    13:00 +2°C° 0 mm 5 mps 748 mmHg 86%
    14:00 +2°C° 0 mm 5 mps 748 mmHg 87%
    15:00 +2°C° 0 mm 5 mps 748 mmHg 88%
    16:00 +3°C° 0 mm 4 mps 748 mmHg 90%
    17:00 +3°C° 0 mm 4 mps 748 mmHg 91%
    18:00 +3°C° 0.1 mm 4 mps 749 mmHg 92%
    19:00 +3°C° 0.1 mm 4 mps 749 mmHg 93%
    20:00 +2°C° 0.1 mm 3 mps 749 mmHg 95%
    21:00 +2°C° 0.1 mm 3 mps 749 mmHg 95%
    22:00 +2°C° 0.1 mm 3 mps 750 mmHg 96%
    23:00 +3°C° 0.1 mm 2 mps 750 mmHg 97%

    Day after tomorrow, 18 February, Monday

    Time Temperature Precipitation Wind Pressure Humidity
    00:00 +2°C° 0 mm 2 mps 750 mmHg 96%
    01:00 +1°C° 0 mm 2 mps 750 mmHg 95%
    02:00 +1°C° 0 mm 2 mps 750 mmHg 94%
    03:00 -1°C° 0 mm 2 mps 751 mmHg 91%
    04:00 +1°C° 0 mm 1 mps 751 mmHg 88%
    05:00 +1°C° 0 mm 1 mps 751 mmHg 85%
    06:00 0°C° 0 mm 1 mps 751 mmHg 82%
    07:00 0°C° 0 mm 1 mps 751 mmHg 79%
    08:00 0°C° 0 mm 1 mps 752 mmHg 76%
    09:00 +1°C° 0 mm 1 mps 752 mmHg 69%
    10:00 +2°C° 0 mm 1 mps 752 mmHg 62%
    11:00 +3°C° 0 mm 1 mps 752 mmHg 55%
    12:00 +4°C° 0 mm 1 mps 753 mmHg 52%
    13:00 +4°C° 0 mm 1 mps 753 mmHg 49%
    14:00 +5°C° 0 mm 1 mps 753 mmHg 46%
    15:00 +4°C° 0 mm 1 mps 753 mmHg 49%
    16:00 +4°C° 0 mm 1 mps 752 mmHg 53%
    17:00 +3°C° 0 mm 1 mps 752 mmHg 57%
    18:00 +2°C° 0 mm 1 mps 752 mmHg 58%
    19:00 +2°C° 0 mm 1 mps 753 mmHg 60%
    20:00 -1°C° 0 mm 2 mps 753 mmHg 62%
    21:00 -1°C° 0 mm 2 mps 753 mmHg 62%
    22:00 -1°C° 0 mm 2 mps 753 mmHg 63%
    23:00 -1°C° 0 mm 2 mps 753 mmHg 63%

    19 February, Tuesday

    Time Temperature Precipitation Wind Pressure Humidity
    00:00 -1°C° 0 mm 2 mps 752 mmHg 64%
    01:00 -1°C° 0 mm 3 mps 752 mmHg 64%
    02:00 -1°C° 0 mm 3 mps 752 mmHg 65%
    03:00 -1°C° 0 mm 3 mps 752 mmHg 66%
    04:00 -2°C° 0 mm 3 mps 751 mmHg 67%
    05:00 -2°C° 0 mm 3 mps 751 mmHg 68%
    06:00 -1°C° 0 mm 3 mps 751 mmHg 70%
    07:00 -1°C° 0 mm 3 mps 750 mmHg 72%
    08:00 -1°C° 0 mm 3 mps 750 mmHg 74%
    09:00 -1°C° 0 mm 4 mps 750 mmHg 73%
    10:00 +1°C° 0 mm 5 mps 750 mmHg 72%
    11:00 +2°C° 0 mm 5 mps 749 mmHg 71%
    12:00 +3°C° 0 mm 5 mps 749 mmHg 69%
    13:00 +4°C° 0 mm 6 mps 748 mmHg 66%
    14:00 +4°C° 0 mm 6 mps 747 mmHg 64%
    15:00 +5°C° 0 mm 5 mps 746 mmHg 69%
    16:00 +3°C° 0 mm 5 mps 746 mmHg 73%
    17:00 +2°C° 0 mm 5 mps 745 mmHg 78%
    18:00 +2°C° 0 mm 5 mps 745 mmHg 81%
    19:00 +1°C° 0 mm 5 mps 744 mmHg 84%
    20:00 +1°C° 0 mm 4 mps 744 mmHg 87%
    21:00 +1°C° 0 mm 4 mps 743 mmHg 87%
    22:00 0°C° 0 mm 4 mps 743 mmHg 87%
    23:00 0°C° 0 mm 4 mps 743 mmHg 86%

    20 February, Wednesday

    Time Temperature Precipitation Wind Pressure Humidity
    00:00 0°C° 0 mm 4 mps 743 mmHg 86%
    01:00 0°C° 0 mm 4 mps 742 mmHg 86%
    02:00 0°C° 0 mm 5 mps 742 mmHg 86%
    03:00 +1°C° 0.2 mm 5 mps 742 mmHg 86%
    04:00 +1°C° 0.2 mm 5 mps 742 mmHg 86%
    05:00 +1°C° 0.2 mm 5 mps 742 mmHg 86%
    06:00 +1°C° 0 mm 5 mps 742 mmHg 86%
    07:00 +1°C° 0 mm 6 mps 743 mmHg 87%
    08:00 +1°C° 0 mm 6 mps 743 mmHg 87%
    09:00 +2°C° 0 mm 6 mps 743 mmHg 82%
    10:00 +2°C° 0 mm 7 mps 743 mmHg 76%
    11:00 +3°C° 0 mm 7 mps 743 mmHg 71%
    12:00 +2°C° 0.1 mm 8 mps 743 mmHg 69%
    13:00 +2°C° 0.1 mm 8 mps 743 mmHg 68%
    14:00 +2°C° 0.1 mm 8 mps 743 mmHg 66%
    15:00 +2°C° 0 mm 8 mps 743 mmHg 68%
    16:00 +2°C° 0 mm 7 mps 743 mmHg 70%
    17:00 +2°C° 0 mm 7 mps 744 mmHg 72%
    18:00 +2°C° 0 mm 7 mps 744 mmHg 74%
    19:00 0°C° 0 mm 7 mps 744 mmHg 75%
    20:00 +1°C° 0 mm 6 mps 744 mmHg 76%
    21:00 +1°C° 0 mm 6 mps 745 mmHg 78%
    22:00 -1°C° 0 mm 6 mps 745 mmHg 79%
    23:00 -1°C° 0 mm 6 mps 745 mmHg 81%

    21 February, Thursday

    Time Temperature Precipitation Wind Pressure Humidity
    00:00 -1°C° 0 mm 5 mps 745 mmHg 83%
    01:00 -1°C° 0 mm 5 mps 746 mmHg 86%
    02:00 -2°C° 0 mm 5 mps 746 mmHg 88%
    03:00 -2°C° 0 mm 4 mps 746 mmHg 89%
    04:00 -2°C° 0 mm 4 mps 746 mmHg 91%
    05:00 -3°C° 0 mm 4 mps 746 mmHg 92%
    06:00 -2°C° 0 mm 4 mps 746 mmHg 91%
    07:00 -2°C° 0 mm 4 mps 746 mmHg 90%
    08:00 -2°C° 0 mm 4 mps 746 mmHg 89%
    09:00 -1°C° 0 mm 4 mps 746 mmHg 86%
    10:00 0°C° 0 mm 3 mps 746 mmHg 82%
    11:00 +1°C° 0 mm 3 mps 746 mmHg 79%
    12:00 +1°C° 0.1 mm 3 mps 746 mmHg 79%
    13:00 +3°C° 0.1 mm 2 mps 746 mmHg 79%
    14:00 +3°C° 0.1 mm 2 mps 745 mmHg 80%
    15:00 +3°C° 0.3 mm 2 mps 745 mmHg 83%
    16:00 +3°C° 0.3 mm 1 mps 745 mmHg 86%
    17:00 +3°C° 0.3 mm 1 mps 745 mmHg 89%
    18:00 +1°C° 0.1 mm 2 mps 745 mmHg 86%
    19:00 +1°C° 0.1 mm 2 mps 746 mmHg 82%
    20:00 0°C° 0.1 mm 3 mps 746 mmHg 79%
    21:00 -1°C° 0.1 mm 3 mps 746 mmHg 77%
    22:00 -2°C° 0.1 mm 4 mps 747 mmHg 75%
    23:00 -4°C° 0.1 mm 5 mps 747 mmHg 73%
    Show more